Easton, MD

6:12 PM EST on January 22, 2018 (GMT -0500)
Easton / Newnam

Weather History for KESN - January, 2012

Change the Weather History Date:

Wednesday, January 11, 2012

  Actual Average Record
Temperature  
Mean Temperature 39 °F -  
Max Temperature 50 °F 38 °F 67 °F (1950)
Min Temperature 28 °F 27 °F 5 °F (1962)
Degree Days  
Heating Degree Days 26    
Moisture  
Dew Point 39 °F    
Average Humidity 97    
Maximum Humidity 100    
Minimum Humidity 76    
Precipitation  
Precipitation 0.19 in - - ()
Sea Level Pressure  
Sea Level Pressure 29.94 in    
Wind  
Wind Speed 4 mph (ESE)    
Max Wind Speed 13 mph    
Max Gust Speed 20 mph    
Visibility 7 miles    
Events Rain    
Averages and records for this station are not official NWS values.
T = Trace of Precipitation, MM = Missing Value Source: NWS Daily Summary

Daily Weather History Graph

Daily Weather History Graph

Search for Another Location

Airport or City:

Trip Planner

Search our weather history database for the weather conditions in past years. The results will help you decide how hot, cold, wet, or windy it might be!

Date:

Astronomy

Jan. 11, 2012 Rise Set
Actual Time 7:22 AM EST 5:02 PM EST
Civil Twilight 6:52 AM EST 5:31 PM EST
Nautical Twilight 6:20 AM EST 6:04 PM EST
Astronomical Twilight 5:47 AM EST 6:36 PM EST
Moon 7:55 PM EST (1/11) 8:35 AM EST (1/11)
Length of Visible Light 10h 38m
Length of Day
9h 39m
Waning Gibbous, 93% of the Moon is Illuminated
Jan 11
Waning Gibbous
Jan 16
Last Quarter
Jan 23
New
Jan 30
First Quarter
Feb 7
Full

Hourly Weather History & Observations

Time (EST) Temp. Windchill Dew Point Humidity Pressure Visibility Wind Dir Wind Speed Gust Speed Precip Events Conditions
12:00 AM 32.0 °F - 32.0 °F 100% 30.07 in 10.0 mi Calm Calm - N/A   Clear
12:18 AM 32.0 °F - 32.0 °F 100% 30.08 in 10.0 mi Calm Calm - N/A   Clear
12:39 AM 32.0 °F - 32.0 °F 100% 30.08 in 10.0 mi Calm Calm - N/A   Clear
12:57 AM 30.2 °F - 30.2 °F 100% 30.08 in 10.0 mi Calm Calm - N/A   Clear
1:15 AM 30.2 °F - 30.2 °F 100% 30.08 in 10.0 mi Calm Calm - N/A   Clear
1:54 AM 30.2 °F 26.7 °F 30.2 °F 100% 30.08 in 10.0 mi East 3.5 mph - N/A   Clear
2:15 AM 30.2 °F 26.7 °F 30.2 °F 100% 30.08 in 10.0 mi East 3.5 mph - N/A   Clear
2:33 AM 30.2 °F - 30.2 °F 100% 30.08 in 10.0 mi Calm Calm - N/A   Clear
3:12 AM 30.2 °F - 30.2 °F 100% 30.08 in 7.0 mi Calm Calm - N/A   Clear
3:33 AM 30.2 °F - 30.2 °F 100% 30.08 in 7.0 mi Calm Calm - N/A   Clear
3:51 AM 30.2 °F 26.7 °F 30.2 °F 100% 30.07 in 7.0 mi East 3.5 mph - N/A   Clear
4:09 AM 30.2 °F 26.7 °F 30.2 °F 100% 30.06 in 5.0 mi East 3.5 mph - N/A   Clear
4:30 AM 30.2 °F 26.7 °F 30.2 °F 100% 30.06 in 5.0 mi East 3.5 mph - N/A   Clear
4:48 AM 30.2 °F - 30.2 °F 100% 30.06 in 5.0 mi Calm Calm - N/A   Clear
5:09 AM 30.2 °F 26.7 °F 30.2 °F 100% 30.06 in 5.0 mi East 3.5 mph - N/A   Clear
5:53 AM 28.4 °F 23.3 °F 28.4 °F 100% 30.05 in 6.0 mi East 4.6 mph - N/A   Scattered Clouds
6:50 AM 35.6 °F 30.7 °F 35.6 °F 100% 30.05 in 6.0 mi ESE 5.8 mph - N/A   Scattered Clouds
7:50 AM 35.6 °F 29.9 °F 35.6 °F 100% 30.06 in 6.0 mi SE 6.9 mph - N/A   Scattered Clouds
8:53 AM 39.2 °F 35.0 °F 37.4 °F 93% 30.08 in 7.0 mi ESE 5.8 mph - N/A   Mostly Cloudy
9:53 AM 42.8 °F 38.6 °F 39.2 °F 87% 30.08 in 7.0 mi SE 6.9 mph - N/A   Mostly Cloudy
10:53 AM 48.2 °F - 42.8 °F 82% 30.06 in 7.0 mi SE 9.2 mph - N/A   Mostly Cloudy
11:53 AM 48.2 °F - 42.8 °F 82% 30.03 in 8.0 mi SE 5.8 mph - N/A   Overcast
12:53 PM 50.0 °F - 42.8 °F 76% 30.01 in 10.0 mi SSE 5.8 mph - N/A   Overcast
1:53 PM 48.2 °F - 44.6 °F 87% 29.98 in 7.0 mi SE 5.8 mph - N/A Rain Light Rain
2:53 PM 46.4 °F 41.1 °F 46.4 °F 100% 29.94 in 6.0 mi SE 11.5 mph 17.3 mph N/A Rain Light Rain
3:53 PM 46.4 °F 41.9 °F 44.6 °F 93% 29.93 in 10.0 mi ESE 9.2 mph - N/A   Overcast
4:55 PM 46.4 °F 41.1 °F 44.6 °F 93% 29.90 in 7.0 mi ESE 11.5 mph 17.3 mph N/A   Overcast
5:52 PM 44.6 °F 38.8 °F 44.6 °F 100% 29.88 in 4.0 mi ESE 11.5 mph 18.4 mph N/A Rain Light Rain
6:50 PM 44.6 °F 38.8 °F 44.6 °F 100% 29.84 in 5.0 mi ESE 11.5 mph 18.4 mph N/A Rain Rain
7:56 PM 44.6 °F 38.8 °F 44.6 °F 100% 29.80 in 5.0 mi East 11.5 mph 18.4 mph N/A Rain Rain
8:58 PM 46.4 °F 41.1 °F 46.4 °F 100% 29.75 in 4.0 mi East 11.5 mph 19.6 mph N/A Rain Rain
9:33 PM 46.4 °F 41.1 °F 46.4 °F 100% 29.72 in 7.0 mi East 11.5 mph 17.3 mph 0.05 in Rain Light Rain
9:51 PM 46.4 °F 41.1 °F 46.4 °F 100% 29.70 in 7.0 mi East 11.5 mph 18.4 mph 0.06 in Rain Light Rain
10:12 PM 46.4 °F 41.1 °F 46.4 °F 100% 29.68 in 7.0 mi East 11.5 mph 19.6 mph 0.03 in Rain Light Rain
10:30 PM 48.2 °F - 48.2 °F 100% 29.67 in 5.0 mi East 12.7 mph 18.4 mph 0.07 in Rain Light Rain
10:51 PM 48.2 °F - 48.2 °F 100% 29.65 in 7.0 mi East 6.9 mph 17.3 mph 0.11 in Rain Rain
11:09 PM 50.0 °F - 50.0 °F 100% 29.64 in 7.0 mi East 10.4 mph - N/A Rain Light Rain
11:30 PM 50.0 °F - 50.0 °F 100% 29.62 in 7.0 mi East 6.9 mph - 0.01 in   Drizzle
11:48 PM 50.0 °F - 50.0 °F 100% 29.60 in 7.0 mi ENE 6.9 mph - 0.02 in Rain Light Rain